Regional Weather Roundup
Issued by NWS

Home | Current Version | Previous Version | Graphics & Text | Print | Product List | Glossary On
Versions: 1 2 3 4 5 6 7 8 9 10 11 12 13 14 15 16 17 18 19 20 21 22 23 24 25 26 27 28 29 30 31 32 33 34 35 36 37 38 39 40 41 42 43 44 45 46 47 48 49 50
000
ASUS43 KBIS 250310
RWRND

NORTH DAKOTA REGIONAL WEATHER ROUNDUP
NATIONAL WEATHER SERVICE BISMARCK ND
1000 PM CDT THU JUL 24 2014

NOTE: "FAIR" INDICATES FEW OR NO CLOUDS BELOW 12,000 FEET WITH NO
SIGNIFICANT WEATHER AND/OR OBSTRUCTIONS TO VISIBILITY.


NDZ001>003-009>011-017-250400-
NORTHWEST NORTH DAKOTA

CITY           SKY/WX    TMP DP  RH WIND       PRES   REMARKS
WILLISTON      LGT RAIN  67  62  84 NW20G29   29.77R
MINOT          MOCLDY    70  66  87 S5        29.75R
MINOT AFB      MOCLDY    71  70  99 S6        29.76R
$$

NDZ018>021-031>035-040>046-250400-
SOUTHWEST NORTH DAKOTA

CITY           SKY/WX    TMP DP  RH WIND       PRES   REMARKS
BISMARCK       CLOUDY    74  65  73 S17       29.72R
DICKINSON      CLOUDY    73  67  81 N9        29.72R
GARRISON         N/A     70  67  90 CALM      29.74R
HETTINGER ARPT CLOUDY    76  68  76 SE16      29.71R
$$

NDZ004>008-012>016-024-026-027-054-250400-
NORTHEAST NORTH DAKOTA

CITY           SKY/WX    TMP DP  RH WIND       PRES   REMARKS
GRAND FORKS    MOCLDY    70  61  73 SE9       29.78R
GRND FRKS AFB  MOCLDY    68  65  88 SE6       29.80R
DEVILS LAKE    CLOUDY    70  61  73 E10       29.76R
$$

NDZ022-023-025-028>030-036>039-047>053-250400-
SOUTHEAST NORTH DAKOTA

CITY           SKY/WX    TMP DP  RH WIND       PRES   REMARKS
FARGO          MOCLDY    71  62  73 SE17G30   29.71F
JAMESTOWN      PTCLDY    70  63  78 S18G30    29.71R
$$



USA.gov is the U.S. government's official web portal to all federal, state and local government web resources and services.